STARLINK-35444

Last updated on Tue Dec 16 2025 00:02:05 GMT+0000 (Coordinated Universal Time)

1 66511U 25263AC 25349.38581730 .00091203 00000+0 15411-2 0 9993 2 66511 43.0026 109.5715 0001708 269.8581 90.2084 15.50603088 5979
UTC large
Height (km)
Speed (km/s)
/
Latitude / Longitude
Inclination (degrees)
Orbital Period (minutes)
Azimuth
Elevation
Range (km)
Doppler Factor

Next 0 passes for location: London (51.5072 / 0.1276)

Sorry there are no passes over London.